Total_Precipitation_Accumulation
0.04 0.02 0.03 0.04 0.03 0.03 0.03 0.02 0.02 0.02 0.02 0.02 0.02 0.02 0.02 0.02 0.00 0.00 0.00 0.00 0.00 0.00 0.00 0.00 0.00 0.00 0.00 0.00 0.00 0.00 0.00 0.00 0.00 0.01 0.15 0.23 0.08 0.24 0.13 0.11 0.27 0.31 0.50 0.60 0.85
0.07 0.06 0.04 0.04 0.04 0.03 0.02 0.02 0.02 0.02 0.03 0.03 0.01 0.02 0.02 0.02 0.00 0.00 0.00 0.00 0.00 0.00 0.00 0.00 0.00 0.00 0.00 0.00 0.00 0.00 0.00 0.00 0.00 0.06 0.24 0.13 0.03 0.19 0.09 0.19 0.54 0.38 0.72 0.66 0.43
0.04 0.04 0.04 0.04 0.05 0.04 0.03 0.03 0.02 0.02 0.02 0.01 0.01 0.02 0.02 0.01 0.00 0.00 0.00 0.00 0.00 0.00 0.00 0.00 0.00 0.00 0.00 0.00 0.00 0.00 0.00 0.00 0.02 0.11 0.04 0.02 0.07 0.10 0.32 0.45 0.52 1.13 0.48 0.41 0.49
0.03 0.03 0.04 0.04 0.04 0.03 0.03 0.03 0.03 0.02 0.02 0.01 0.01 0.02 0.02 0.00 0.00 0.00 0.00 0.00 0.00 0.00 0.00 0.00 0.00 0.00 0.00 0.00 0.00 0.00 0.00 0.00 0.01 0.01 0.01 0.00 0.01 0.11 0.35 0.80 0.30 0.32 0.38 0.47 0.75
0.03 0.03 0.03 0.04 0.04 0.03 0.04 0.04 0.03 0.03 0.02 0.01 0.01 0.02 0.01 0.00 0.00 0.00 0.00 0.00 0.00 0.00 0.00 0.00 0.00 0.00 0.00 0.00 0.00 0.00 0.00 0.00 0.01 0.04 0.03 0.00 0.04 0.12 0.30 0.11 0.11 0.16 0.38 0.55 0.56
0.04 0.03 0.03 0.04 0.05 0.05 0.05 0.04 0.03 0.02 0.02 0.02 0.02 0.02 0.00 0.00 0.00 0.00 0.00 0.00 0.00 0.00 0.00 0.00 0.00 0.00 0.00 0.00 0.00 0.00 0.00 0.00 0.00 0.01 0.01 0.02 0.05 0.09 0.39 0.12 0.12 0.12 0.32 0.56 0.58
0.06 0.06 0.06 0.06 0.08 0.09 0.08 0.06 0.04 0.03 0.03 0.02 0.02 0.01 0.00 0.00 0.00 0.00 0.00 0.00 0.00 0.00 0.00 0.00 0.00 0.00 0.00 0.00 0.00 0.00 0.00 0.02 0.03 0.01 0.00 0.05 0.19 0.35 0.13 0.08 0.07 0.03 0.04 0.36 0.86
0.16 0.13 0.12 0.11 0.13 0.13 0.12 0.09 0.06 0.05 0.03 0.02 0.02 0.00 0.00 0.00 0.00 0.00 0.00 0.00 0.00 0.00 0.00 0.00 0.00 0.00 0.00 0.00 0.00 0.00 0.00 0.01 0.04 0.03 0.02 0.15 0.48 0.05 0.03 0.05 0.04 0.01 0.01 0.06 0.10
0.17 0.15 0.12 0.12 0.13 0.14 0.14 0.11 0.09 0.05 0.03 0.01 0.01 0.00 0.00 0.00 0.00 0.00 0.00 0.00 0.00 0.00 0.00 0.00 0.00 0.00 0.00 0.00 0.00 0.00 0.00 0.00 0.01 0.01 0.01 0.05 0.33 0.12 0.05 0.09 0.08 0.02 0.01 0.01 0.01
0.15 0.14 0.14 0.15 0.16 0.17 0.14 0.10 0.08 0.04 0.01 0.00 0.01 0.00 0.00 0.00 0.00 0.00 0.00 0.00 0.00 0.00 0.00 0.00 0.00 0.00 0.00 0.00 0.01 0.00 0.00 0.00 0.02 0.02 0.01 0.01 0.03 0.25 0.12 0.05 0.27 0.09 0.04 0.04 0.00
0.11 0.09 0.09 0.12 0.18 0.16 0.09 0.09 0.08 0.05 0.02 0.00 0.00 0.00 0.00 0.00 0.00 0.00 0.00 0.00 0.00 0.00 0.01 0.00 0.00 0.00 0.00 0.00 0.00 0.00 0.00 0.00 0.00 0.01 0.00 0.00 0.01 0.01 0.00 0.00 0.03 0.05 0.07 0.02 0.00
0.14 0.13 0.13 0.17 0.21 0.13 0.05 0.03 0.02 0.02 0.01 0.00 0.00 0.00 0.00 0.00 0.00 0.00 0.00 0.00 0.00 0.01 0.02 0.02 0.01 0.00 0.00 0.00 0.00 0.00 0.00 0.00 0.00 0.00 0.00 0.00 0.00 0.00 0.00 0.00 0.01 0.01 0.11 0.03 0.00
0.14 0.15 0.20 0.26 0.26 0.16 0.05 0.04 0.02 0.02 0.05 0.01 0.00 0.00 0.00 0.00 0.00 0.00 0.00 0.00 0.00 0.03 0.03 0.02 0.01 0.00 0.01 0.00 0.00 0.00 0.00 0.00 0.00 0.00 0.00 0.00 0.00 0.00 0.01 0.01 0.02 0.00 0.00 0.00 0.00
0.16 0.19 0.23 0.28 0.20 0.04 0.05 0.03 0.01 0.01 0.13 0.02 0.00 0.00 0.00 0.00 0.00 0.00 0.00 0.00 0.00 0.02 0.08 0.07 0.00 0.02 0.00 0.00 0.00 0.00 0.00 0.00 0.00 0.00 0.00 0.00 0.00 0.00 0.00 0.01 0.00 0.00 0.00 0.00 0.02
0.23 0.22 0.21 0.17 0.09 0.06 0.03 0.01 0.01 0.10 0.33 0.02 0.00 0.00 0.00 0.00 0.00 0.00 0.00 0.00 0.00 0.01 0.09 0.09 0.03 0.04 0.02 0.00 0.00 0.01 0.00 0.00 0.00 0.00 0.05 0.02 0.00 0.03 0.05 0.02 0.00 0.01 0.02 0.02 0.03
0.33 0.27 0.29 0.17 0.09 0.05 0.04 0.05 0.18 0.53 0.35 0.01 0.00 0.00 0.00 0.00 0.00 0.00 0.00 0.00 0.00 0.01 0.01 0.01 0.02 0.06 0.03 0.00 0.00 0.00 0.02 0.00 0.00 0.02 0.07 0.01 0.01 0.01 0.01 0.03 0.07 0.14 0.11 0.08 0.07
0.33 0.34 0.31 0.17 0.17 0.07 0.05 0.25 0.56 0.38 0.04 0.00 0.00 0.00 0.00 0.00 0.00 0.00 0.00 0.00 0.00 0.00 0.00 0.00 0.01 0.01 0.01 0.01 0.01 0.02 0.11 0.18 0.19 0.09 0.04 0.00 0.02 0.02 0.06 0.16 0.28 0.32 0.14 0.08 0.06
0.39 0.46 0.30 0.15 0.15 0.15 0.39 0.77 0.57 0.06 0.01 0.01 0.00 0.00 0.00 0.00 0.00 0.00 0.00 0.00 0.00 0.00 0.01 0.06 0.06 0.00 0.01 0.00 0.02 0.02 0.08 0.26 0.36 0.18 0.08 0.15 0.09 0.18 0.36 0.38 0.44 0.32 0.24 0.20 0.24
0.75 0.58 0.47 0.26 0.14 0.22 0.77 0.90 0.19 0.02 0.00 0.00 0.00 0.00 0.00 0.00 0.00 0.00 0.00 0.01 0.02 0.01 0.06 0.11 0.07 0.02 0.01 0.01 0.02 0.08 0.11 0.10 0.50 0.29 0.17 0.12 0.11 0.58 1.05 0.79 1.22 1.33 0.82 0.67 0.55
0.72 0.82 0.66 0.48 0.47 0.82 1.70 0.70 0.03 0.01 0.00 0.00 0.01 0.01 0.01 0.01 0.01 0.01 0.02 0.04 0.05 0.01 0.01 0.06 0.18 0.04 0.02 0.04 0.01 0.07 0.12 0.42 0.69 0.55 0.24 0.01 0.06 0.41 0.67 0.73 0.79 0.66 0.49 0.34 0.25
1.35 1.49 0.91 0.79 1.42 2.21 1.70 0.38 0.04 0.00 0.00 0.01 0.01 0.04 0.05 0.06 0.06 0.06 0.12 0.16 0.04 0.03 0.01 0.02 0.14 0.14 0.12 0.13 0.07 0.10 0.30 0.35 0.47 0.28 0.36 0.20 0.40 0.77 0.64 0.86 0.63 0.17 0.12 0.11 0.05
2.14 1.88 1.03 1.20 2.23 1.72 0.67 0.18 0.04 0.02 0.01 0.01 0.00 0.02 0.08 0.08 0.07 0.11 0.11 0.23 0.14 0.09 0.08 0.12 0.14 0.08 0.07 0.06 0.06 0.16 0.24 0.46 0.91 0.59 0.36 0.40 0.52 0.93 0.75 0.39 0.67 0.31 0.22 0.07 0.02
2.82 2.08 1.92 1.68 1.84 0.78 0.30 0.12 0.06 0.03 0.02 0.02 0.02 0.02 0.06 0.09 0.14 0.11 0.12 0.09 0.15 0.25 0.28 0.24 0.26 0.21 0.15 0.18 0.16 0.23 0.31 0.44 0.62 0.84 0.60 0.69 0.64 0.95 0.72 0.71 0.92 0.47 0.09 0.05 0.05
3.13 2.81 3.27 2.31 0.86 0.52 0.50 0.31 0.09 0.03 0.02 0.03 0.03 0.04 0.06 0.06 0.14 0.15 0.16 0.13 0.12 0.18 0.30 0.41 0.17 0.14 0.16 0.19 0.24 0.23 0.17 0.28 0.83 1.24 0.64 0.32 0.38 1.14 1.31 1.18 0.59 0.19 0.13 0.12 0.11
4.33 1.90 1.15 1.41 0.69 0.38 0.40 0.41 0.27 0.19 0.07 0.05 0.07 0.12 0.10 0.08 0.09 0.10 0.15 0.21 0.14 0.25 0.42 0.50 0.34 0.13 0.07 0.06 0.13 0.14 0.20 0.25 0.45 0.44 0.64 0.44 0.58 0.73 0.83 0.96 0.71 0.34 0.19 0.15 0.14
4.43 1.19 0.54 0.33 0.29 0.43 0.47 0.26 0.13 0.18 0.26 0.13 0.14 0.08 0.10 0.11 0.06 0.13 0.16 0.16 0.24 0.29 0.51 0.51 0.62 0.36 0.11 0.03 0.08 0.13 0.09 0.18 0.29 0.37 0.37 0.28 0.59 0.49 0.53 0.58 0.77 0.60 0.38 0.24 0.19
3.78 0.77 0.90 0.69 0.34 0.63 0.58 0.26 0.12 0.17 0.19 0.06 0.13 0.18 0.12 0.08 0.19 0.21 0.26 0.21 0.25 0.29 0.58 0.42 0.54 0.51 0.56 0.09 0.14 0.19 0.13 0.10 0.19 0.54 0.46 0.68 0.49 0.30 0.45 0.55 0.47 0.58 0.52 0.52 0.33